Back to catalog

TEVEL2-5

AliveAmateur RadioSSO
NORAD 63214·PAYLOAD·🇮🇱 Israel

Launched Mar 15, 2025 from Vandenberg Space Force Base

Loading…

Next Passes (next 24 hours)

TLE

FreshSource: AMSAT

Epoch: Sep 13, 2026, 16:16 UTC

1 63214U 25052E   26256.67827196  .00016374  00000-0  45012-3 0  9993
2 63214  97.3761 153.2599 0003958 122.7443 237.4184 15.37274978 83691

Track TEVEL2-5 in real time with AllMySat

Download on the App Store